Year,Month,Day,Hour,Minute,Value (Times are PST for temperature in C)
2007,10,23,00,00,11.10
2007,10,23,00,01,11.20
2007,10,23,00,02,11.20
2007,10,23,00,03,11.20
2007,10,23,00,04,11.20
2007,10,23,00,05,11.20
2007,10,23,00,06,11.20
2007,10,23,00,07,11.20
2007,10,23,00,08,11.20
2007,10,23,00,09,11.20
2007,10,23,00,10,11.20
2007,10,23,00,11,11.20
2007,10,23,00,12,11.20
2007,10,23,00,13,11.20
2007,10,23,00,14,11.20
2007,10,23,00,15,11.20
2007,10,23,00,16,11.20
2007,10,23,00,17,11.20
2007,10,23,00,18,11.20
2007,10,23,00,19,11.20
2007,10,23,00,20,11.20
2007,10,23,00,21,11.20
2007,10,23,00,22,11.20
2007,10,23,00,23,11.20
2007,10,23,00,24,11.20
2007,10,23,00,25,11.20
2007,10,23,00,26,11.20
2007,10,23,00,27,11.20
2007,10,23,00,28,11.20
2007,10,23,00,29,11.20
2007,10,23,00,30,11.20
2007,10,23,00,31,11.20
2007,10,23,00,32,11.20
2007,10,23,00,33,11.20
2007,10,23,00,34,11.20
2007,10,23,00,35,11.20
2007,10,23,00,36,11.20
2007,10,23,00,37,11.20
2007,10,23,00,38,11.20
2007,10,23,00,39,11.20
2007,10,23,00,40,11.20
2007,10,23,00,41,11.20
2007,10,23,00,42,11.20
2007,10,23,00,43,11.20
2007,10,23,00,44,11.20
2007,10,23,00,45,11.20
2007,10,23,00,46,11.20
2007,10,23,00,47,11.20
2007,10,23,00,48,11.20
2007,10,23,00,49,11.20
2007,10,23,00,50,11.20
2007,10,23,00,51,11.20
2007,10,23,00,52,11.20
2007,10,23,00,53,11.20
2007,10,23,00,54,11.20
2007,10,23,00,55,11.20
2007,10,23,00,56,11.20
2007,10,23,00,57,11.20
2007,10,23,00,58,11.20
2007,10,23,00,59,11.20
2007,10,23,01,00,11.20
2007,10,23,01,01,11.20
2007,10,23,01,02,11.20
2007,10,23,01,03,11.20
2007,10,23,01,04,11.20
2007,10,23,01,05,11.20
2007,10,23,01,06,11.20
2007,10,23,01,07,11.20
2007,10,23,01,08,11.20
2007,10,23,01,09,11.20
2007,10,23,01,10,11.20
2007,10,23,01,11,11.20
2007,10,23,01,12,11.20
2007,10,23,01,13,11.20
2007,10,23,01,14,11.20
2007,10,23,01,15,11.20
2007,10,23,01,16,11.20
2007,10,23,01,17,11.20
2007,10,23,01,18,11.20
2007,10,23,01,19,11.20
2007,10,23,01,20,11.20
2007,10,23,01,21,11.20
2007,10,23,01,22,11.20
2007,10,23,01,23,11.20
2007,10,23,01,24,11.20
2007,10,23,01,25,11.20
2007,10,23,01,26,11.20
2007,10,23,01,27,11.20
2007,10,23,01,28,11.20
2007,10,23,01,29,11.20
2007,10,23,01,30,11.20
2007,10,23,01,31,11.20
2007,10,23,01,32,11.20
2007,10,23,01,33,11.20
2007,10,23,01,34,11.20
2007,10,23,01,35,11.20
2007,10,23,01,36,11.30
2007,10,23,01,37,11.30
2007,10,23,01,38,11.30
2007,10,23,01,39,11.30
2007,10,23,01,40,11.30
2007,10,23,01,41,11.30
2007,10,23,01,42,11.30
2007,10,23,01,43,11.30
2007,10,23,01,44,11.30
2007,10,23,01,45,11.30
2007,10,23,01,46,11.30
2007,10,23,01,47,11.30
2007,10,23,01,48,11.30
2007,10,23,01,49,11.30
2007,10,23,01,50,11.30
2007,10,23,01,51,11.30
2007,10,23,01,52,11.30
2007,10,23,01,53,11.30
2007,10,23,01,54,11.30
2007,10,23,01,55,11.30
2007,10,23,01,56,11.30
2007,10,23,01,57,11.30
2007,10,23,01,58,11.30
2007,10,23,01,59,11.30
2007,10,23,02,00,11.30
2007,10,23,02,01,11.30
2007,10,23,02,02,11.30
2007,10,23,02,03,11.30
2007,10,23,02,04,11.30
2007,10,23,02,05,11.30
2007,10,23,02,06,11.30
2007,10,23,02,07,11.30
2007,10,23,02,08,11.30
2007,10,23,02,09,11.30
2007,10,23,02,10,11.30
2007,10,23,02,11,11.30
2007,10,23,02,12,11.30
2007,10,23,02,13,11.30
2007,10,23,02,14,11.30
2007,10,23,02,15,11.30
2007,10,23,02,16,11.30
2007,10,23,02,17,11.30
2007,10,23,02,18,11.30
2007,10,23,02,19,11.30
2007,10,23,02,20,11.30
2007,10,23,02,21,11.30
2007,10,23,02,22,11.30
2007,10,23,02,23,11.30
2007,10,23,02,24,11.30
2007,10,23,02,25,11.30
2007,10,23,02,26,11.30
2007,10,23,02,27,11.30
2007,10,23,02,28,11.30
2007,10,23,02,29,11.30
2007,10,23,02,30,11.30
2007,10,23,02,31,11.30
2007,10,23,02,32,11.30
2007,10,23,02,33,11.30
2007,10,23,02,34,11.30
2007,10,23,02,35,11.30
2007,10,23,02,36,11.30
2007,10,23,02,37,11.30
2007,10,23,02,38,11.30
2007,10,23,02,39,11.30
2007,10,23,02,40,11.30
2007,10,23,02,41,11.30
2007,10,23,02,42,11.30
2007,10,23,02,43,11.30
2007,10,23,02,44,11.30
2007,10,23,02,45,11.30
2007,10,23,02,46,11.30
2007,10,23,02,47,11.30
2007,10,23,02,48,11.30
2007,10,23,02,49,11.30
2007,10,23,02,50,11.30
2007,10,23,02,51,11.30
2007,10,23,02,52,11.30
2007,10,23,02,53,11.30
2007,10,23,02,54,11.30
2007,10,23,02,55,11.30
2007,10,23,02,56,11.30
2007,10,23,02,57,11.30
2007,10,23,02,58,11.30
2007,10,23,02,59,11.30
2007,10,23,03,00,11.20
2007,10,23,03,01,11.20
2007,10,23,03,02,11.20
2007,10,23,03,03,11.30
2007,10,23,03,04,11.30
2007,10,23,03,05,11.30
2007,10,23,03,06,11.30
2007,10,23,03,07,11.30
2007,10,23,03,08,11.30
2007,10,23,03,09,11.30
2007,10,23,03,10,11.30
2007,10,23,03,11,11.30
2007,10,23,03,12,11.30
2007,10,23,03,13,11.30
2007,10,23,03,14,11.30
2007,10,23,03,15,11.30
2007,10,23,03,16,11.30
2007,10,23,03,17,11.30
2007,10,23,03,18,11.30
2007,10,23,03,19,11.30
2007,10,23,03,20,11.30
2007,10,23,03,21,11.30
2007,10,23,03,22,11.30
2007,10,23,03,23,11.30
2007,10,23,03,24,11.30
2007,10,23,03,25,11.30
2007,10,23,03,26,11.30
2007,10,23,03,27,11.30
2007,10,23,03,28,11.30
2007,10,23,03,29,11.30
2007,10,23,03,30,11.30
2007,10,23,03,31,11.30
2007,10,23,03,32,11.30
2007,10,23,03,33,11.30
2007,10,23,03,34,11.30
2007,10,23,03,35,11.30
2007,10,23,03,36,11.30
2007,10,23,03,37,11.30
2007,10,23,03,38,11.30
2007,10,23,03,39,11.30
2007,10,23,03,40,11.30
2007,10,23,03,41,11.30
2007,10,23,03,42,11.30
2007,10,23,03,43,11.30
2007,10,23,03,44,11.30
2007,10,23,03,45,11.30
2007,10,23,03,46,11.30
2007,10,23,03,47,11.30
2007,10,23,03,48,11.30
2007,10,23,03,49,11.30
2007,10,23,03,50,11.30
2007,10,23,03,51,11.40
2007,10,23,03,52,11.40
2007,10,23,03,53,11.40
2007,10,23,03,54,11.40
2007,10,23,03,55,11.40
2007,10,23,03,56,11.40
2007,10,23,03,57,11.40
2007,10,23,03,58,11.40
2007,10,23,03,59,11.40
2007,10,23,04,00,11.40
2007,10,23,04,01,11.30
2007,10,23,04,02,11.40
2007,10,23,04,03,11.30
2007,10,23,04,04,11.40
2007,10,23,04,05,11.30
2007,10,23,04,06,11.30
2007,10,23,04,07,11.30
2007,10,23,04,08,11.30
2007,10,23,04,09,11.30
2007,10,23,04,10,11.30
2007,10,23,04,11,11.30
2007,10,23,04,12,11.30
2007,10,23,04,13,11.30
2007,10,23,04,14,11.30
2007,10,23,04,15,11.30
2007,10,23,04,16,11.30
2007,10,23,04,17,11.30
2007,10,23,04,18,11.30
2007,10,23,04,19,11.30
2007,10,23,04,20,11.30
2007,10,23,04,21,11.20
2007,10,23,04,22,11.20
2007,10,23,04,23,11.20
2007,10,23,04,24,11.20
2007,10,23,04,25,11.20
2007,10,23,04,26,11.20
2007,10,23,04,27,11.10
2007,10,23,04,28,11.10
2007,10,23,04,29,11.10
2007,10,23,04,30,11.10
2007,10,23,04,31,11.00
2007,10,23,04,32,11.00
2007,10,23,04,33,11.00
2007,10,23,04,34,10.90
2007,10,23,04,35,10.90
2007,10,23,04,36,10.90
2007,10,23,04,37,10.80
2007,10,23,04,38,10.80
2007,10,23,04,39,10.80
2007,10,23,04,40,10.70
2007,10,23,04,41,10.70
2007,10,23,04,42,10.70
2007,10,23,04,43,10.70
2007,10,23,04,44,10.70
2007,10,23,04,45,10.60
2007,10,23,04,46,10.60
2007,10,23,04,47,10.60
2007,10,23,04,48,10.60
2007,10,23,04,49,10.60
2007,10,23,04,50,10.60
2007,10,23,04,51,10.60
2007,10,23,04,52,10.50
2007,10,23,04,53,10.50
2007,10,23,04,54,10.50
2007,10,23,04,55,10.40
2007,10,23,04,56,10.40
2007,10,23,04,57,10.40
2007,10,23,04,58,10.40
2007,10,23,04,59,10.40
2007,10,23,05,00,10.40
2007,10,23,05,01,10.40
2007,10,23,05,02,10.30
2007,10,23,05,03,10.30
2007,10,23,05,04,10.30
2007,10,23,05,05,10.30
2007,10,23,05,06,10.30
2007,10,23,05,07,10.30
2007,10,23,05,08,10.30
2007,10,23,05,09,10.30
2007,10,23,05,10,10.30
2007,10,23,05,11,10.30
2007,10,23,05,12,10.30
2007,10,23,05,13,10.30
2007,10,23,05,14,10.30
2007,10,23,05,15,10.30
2007,10,23,05,16,10.30
2007,10,23,05,17,10.30
2007,10,23,05,18,10.20
2007,10,23,05,19,10.20
2007,10,23,05,20,10.20
2007,10,23,05,21,10.20
2007,10,23,05,22,10.20
2007,10,23,05,23,10.10
2007,10,23,05,24,10.10
2007,10,23,05,25,10.10
2007,10,23,05,26,10.10
2007,10,23,05,27,10.10
2007,10,23,05,28,10.00
2007,10,23,05,29,10.00
2007,10,23,05,30,10.00
2007,10,23,05,31,9.90
2007,10,23,05,32,9.90
2007,10,23,05,33,9.90
2007,10,23,05,34,9.90
2007,10,23,05,35,9.90
2007,10,23,05,36,9.90
2007,10,23,05,37,9.90
2007,10,23,05,38,9.80
2007,10,23,05,39,9.80
2007,10,23,05,40,9.80
2007,10,23,05,41,9.80
2007,10,23,05,42,9.80
2007,10,23,05,43,9.80
2007,10,23,05,44,9.80
2007,10,23,05,45,9.80
2007,10,23,05,46,9.80
2007,10,23,05,47,9.80
2007,10,23,05,48,9.80
2007,10,23,05,49,9.80
2007,10,23,05,50,9.80
2007,10,23,05,51,9.80
2007,10,23,05,52,9.80
2007,10,23,05,53,9.80
2007,10,23,05,54,9.90
2007,10,23,05,55,9.90
2007,10,23,05,56,9.90
2007,10,23,05,57,9.90
2007,10,23,05,58,9.90
2007,10,23,05,59,9.90
2007,10,23,06,00,9.90
2007,10,23,06,01,9.90
2007,10,23,06,02,9.90
2007,10,23,06,03,9.90
2007,10,23,06,04,10.00
2007,10,23,06,05,10.00
2007,10,23,06,06,10.00
2007,10,23,06,07,10.00
2007,10,23,06,08,10.00
2007,10,23,06,09,10.10
2007,10,23,06,10,10.10
2007,10,23,06,11,10.10
2007,10,23,06,12,10.10
2007,10,23,06,13,10.10
2007,10,23,06,14,10.10
2007,10,23,06,15,10.10
2007,10,23,06,16,10.10
2007,10,23,06,17,10.10
2007,10,23,06,18,10.10
2007,10,23,06,19,10.10
2007,10,23,06,20,10.10
2007,10,23,06,21,10.20
2007,10,23,06,22,10.20
2007,10,23,06,23,10.20
2007,10,23,06,24,10.20
2007,10,23,06,25,10.20
2007,10,23,06,26,10.20
2007,10,23,06,27,10.20
2007,10,23,06,28,10.20
2007,10,23,06,29,10.20
2007,10,23,06,30,10.20
2007,10,23,06,31,10.20
2007,10,23,06,32,10.20
2007,10,23,06,33,10.20
2007,10,23,06,34,10.20
2007,10,23,06,35,10.20
2007,10,23,06,36,10.20
2007,10,23,06,37,10.20
2007,10,23,06,38,10.20
2007,10,23,06,39,10.20
2007,10,23,06,40,10.20
2007,10,23,06,41,10.20
2007,10,23,06,42,10.20
2007,10,23,06,43,10.20
2007,10,23,06,44,10.20
2007,10,23,06,45,10.20
2007,10,23,06,46,10.20
2007,10,23,06,47,10.20
2007,10,23,06,48,10.20
2007,10,23,06,49,10.20
2007,10,23,06,50,10.20
2007,10,23,06,51,10.20
2007,10,23,06,52,10.30
2007,10,23,06,53,10.30
2007,10,23,06,54,10.30
2007,10,23,06,55,10.30
2007,10,23,06,56,10.30
2007,10,23,06,57,10.30
2007,10,23,06,58,10.30
2007,10,23,06,59,10.30
2007,10,23,07,00,10.30
2007,10,23,07,01,10.30
2007,10,23,07,02,10.30
2007,10,23,07,03,10.30
2007,10,23,07,04,10.30
2007,10,23,07,05,10.30
2007,10,23,07,06,10.30
2007,10,23,07,07,10.30
2007,10,23,07,08,10.30
2007,10,23,07,09,10.30
2007,10,23,07,10,10.30
2007,10,23,07,11,10.30
2007,10,23,07,12,10.30
2007,10,23,07,13,10.30
2007,10,23,07,14,10.30
2007,10,23,07,15,10.40
2007,10,23,07,16,10.30
2007,10,23,07,17,10.30
2007,10,23,07,18,10.30
2007,10,23,07,19,10.30
2007,10,23,07,20,10.30
2007,10,23,07,21,10.30
2007,10,23,07,22,10.30
2007,10,23,07,23,10.30
2007,10,23,07,24,10.40
2007,10,23,07,25,10.40
2007,10,23,07,26,10.40
2007,10,23,07,27,10.40
2007,10,23,07,28,10.40
2007,10,23,07,29,10.40
2007,10,23,07,30,10.40
2007,10,23,07,31,10.40
2007,10,23,07,32,10.40
2007,10,23,07,33,10.40
2007,10,23,07,34,10.40
2007,10,23,07,35,10.40
2007,10,23,07,36,10.40
2007,10,23,07,37,10.40
2007,10,23,07,38,10.40
2007,10,23,07,39,10.40
2007,10,23,07,40,10.40
2007,10,23,07,41,10.30
2007,10,23,07,42,10.30
2007,10,23,07,43,10.30
2007,10,23,07,44,10.30
2007,10,23,07,45,10.30
2007,10,23,07,46,10.30
2007,10,23,07,47,10.30
2007,10,23,07,48,10.30
2007,10,23,07,49,10.30
2007,10,23,07,50,10.30
2007,10,23,07,51,10.30
2007,10,23,07,52,10.30
2007,10,23,07,53,10.30
2007,10,23,07,54,10.30
2007,10,23,07,55,10.30
2007,10,23,07,56,10.30
2007,10,23,07,57,10.30
2007,10,23,07,58,10.30
2007,10,23,07,59,10.30
2007,10,23,08,00,10.30
2007,10,23,08,01,10.30
2007,10,23,08,02,10.30
2007,10,23,08,03,10.30
2007,10,23,08,04,10.30
2007,10,23,08,05,10.30
2007,10,23,08,06,10.30
2007,10,23,08,07,10.30
2007,10,23,08,08,10.30
2007,10,23,08,09,10.30
2007,10,23,08,10,10.20
2007,10,23,08,11,10.20
2007,10,23,08,12,10.20
2007,10,23,08,13,10.20
2007,10,23,08,14,10.20
2007,10,23,08,15,10.20
2007,10,23,08,16,10.20
2007,10,23,08,17,10.20
2007,10,23,08,18,10.20
2007,10,23,08,19,10.20
2007,10,23,08,20,10.20
2007,10,23,08,21,10.20
2007,10,23,08,22,10.20
2007,10,23,08,23,10.20
2007,10,23,08,24,10.20
2007,10,23,08,25,10.20
2007,10,23,08,26,10.20
2007,10,23,08,27,10.10
2007,10,23,08,28,10.10
2007,10,23,08,29,10.10
2007,10,23,08,30,10.10
2007,10,23,08,31,10.10
2007,10,23,08,32,10.10
2007,10,23,08,33,10.10
2007,10,23,08,34,10.10
2007,10,23,08,35,10.10
2007,10,23,08,36,10.10
2007,10,23,08,37,10.10
2007,10,23,08,38,10.10
2007,10,23,08,39,10.10
2007,10,23,08,40,10.10
2007,10,23,08,41,10.10
2007,10,23,08,42,10.10
2007,10,23,08,43,10.10
2007,10,23,08,44,10.10
2007,10,23,08,45,10.10
2007,10,23,08,46,10.10
2007,10,23,08,47,10.10
2007,10,23,08,48,10.00
2007,10,23,08,49,10.00
2007,10,23,08,50,10.00
2007,10,23,08,51,10.00
2007,10,23,08,52,10.00
2007,10,23,08,53,10.00
2007,10,23,08,54,10.00
2007,10,23,08,55,10.00
2007,10,23,08,56,10.00
2007,10,23,08,57,10.00
2007,10,23,08,58,10.10
2007,10,23,08,59,10.10
2007,10,23,09,00,10.10
2007,10,23,09,01,10.00
2007,10,23,09,02,10.00
2007,10,23,09,03,10.00
2007,10,23,09,04,10.00
2007,10,23,09,05,9.90
2007,10,23,09,06,9.90
2007,10,23,09,07,10.00
2007,10,23,09,08,9.90
2007,10,23,09,09,9.90
2007,10,23,09,10,10.00
2007,10,23,09,11,9.90
2007,10,23,09,12,9.90
2007,10,23,09,13,9.90
2007,10,23,09,14,9.90
2007,10,23,09,15,9.90
2007,10,23,09,16,9.90
2007,10,23,09,17,9.90
2007,10,23,09,18,9.90
2007,10,23,09,19,9.90
2007,10,23,09,20,9.90
2007,10,23,09,21,9.90
2007,10,23,09,22,9.90
2007,10,23,09,23,9.90
2007,10,23,09,24,9.90
2007,10,23,09,25,9.90
2007,10,23,09,26,9.90
2007,10,23,09,27,9.90
2007,10,23,09,28,9.90
2007,10,23,09,29,9.90
2007,10,23,09,30,9.90
2007,10,23,09,31,9.90
2007,10,23,09,32,9.90
2007,10,23,09,33,9.90
2007,10,23,09,34,9.90
2007,10,23,09,35,9.90
2007,10,23,09,36,10.00
2007,10,23,09,37,10.00
2007,10,23,09,38,10.00
2007,10,23,09,39,10.00
2007,10,23,09,40,10.00
2007,10,23,09,41,10.10
2007,10,23,09,42,10.10
2007,10,23,09,43,10.10
2007,10,23,09,44,10.10
2007,10,23,09,45,10.10
2007,10,23,09,46,10.10
2007,10,23,09,47,10.20
2007,10,23,09,48,10.20
2007,10,23,09,49,10.20
2007,10,23,09,50,10.20
2007,10,23,09,51,10.20
2007,10,23,09,52,10.30
2007,10,23,09,53,10.30
2007,10,23,09,54,10.30
2007,10,23,09,55,10.40
2007,10,23,09,56,10.40
2007,10,23,09,57,10.40
2007,10,23,09,58,10.50
2007,10,23,09,59,10.60
2007,10,23,10,00,10.60
2007,10,23,10,01,10.60
2007,10,23,10,02,10.60
2007,10,23,10,03,10.70
2007,10,23,10,04,10.70
2007,10,23,10,05,10.70
2007,10,23,10,06,10.70
2007,10,23,10,07,10.80
2007,10,23,10,08,10.80
2007,10,23,10,09,10.80
2007,10,23,10,10,10.80
2007,10,23,10,11,10.80
2007,10,23,10,12,10.80
2007,10,23,10,13,10.80
2007,10,23,10,14,10.80
2007,10,23,10,15,10.80
2007,10,23,10,16,10.90
2007,10,23,10,17,10.90
2007,10,23,10,18,10.90
2007,10,23,10,19,10.90
2007,10,23,10,20,11.00
2007,10,23,10,21,11.00
2007,10,23,10,22,11.00
2007,10,23,10,23,11.10
2007,10,23,10,24,11.10
2007,10,23,10,25,11.10
2007,10,23,10,26,11.20
2007,10,23,10,27,11.20
2007,10,23,10,28,11.20
2007,10,23,10,29,11.20
2007,10,23,10,30,11.20
2007,10,23,10,31,11.30
2007,10,23,10,32,11.30
2007,10,23,10,33,11.30
2007,10,23,10,34,11.30
2007,10,23,10,35,11.40
2007,10,23,10,36,11.40
2007,10,23,10,37,11.40
2007,10,23,10,38,11.50
2007,10,23,10,39,11.50
2007,10,23,10,40,11.60
2007,10,23,10,41,11.70
2007,10,23,10,42,11.70
2007,10,23,10,43,11.70
2007,10,23,10,44,11.80
2007,10,23,10,45,11.80
2007,10,23,10,46,11.90
2007,10,23,10,47,12.00
2007,10,23,10,48,12.10
2007,10,23,10,49,12.10
2007,10,23,10,50,12.20
2007,10,23,10,51,12.30
2007,10,23,10,52,12.30
2007,10,23,10,53,12.30
2007,10,23,10,54,12.40
2007,10,23,10,55,12.40
2007,10,23,10,56,12.40
2007,10,23,10,57,12.50
2007,10,23,10,58,12.50
2007,10,23,10,59,12.60
2007,10,23,11,00,12.60
2007,10,23,11,01,12.70
2007,10,23,11,02,12.70
2007,10,23,11,03,12.80
2007,10,23,11,04,12.80
2007,10,23,11,05,12.80
2007,10,23,11,06,12.80
2007,10,23,11,07,12.80
2007,10,23,11,08,12.90
2007,10,23,11,09,12.90
2007,10,23,11,10,13.00
2007,10,23,11,11,13.00
2007,10,23,11,12,13.10
2007,10,23,11,13,13.20
2007,10,23,11,14,13.30
2007,10,23,11,15,13.30
2007,10,23,11,16,13.40
2007,10,23,11,17,13.40
2007,10,23,11,18,13.50
2007,10,23,11,19,13.50
2007,10,23,11,20,13.60
2007,10,23,11,21,13.70
2007,10,23,11,22,13.70
2007,10,23,11,23,13.80
2007,10,23,11,24,13.90
2007,10,23,11,25,13.90
2007,10,23,11,26,14.00
2007,10,23,11,27,14.10
2007,10,23,11,28,14.20
2007,10,23,11,29,14.30
2007,10,23,11,30,14.40
2007,10,23,11,31,14.50
2007,10,23,11,32,14.60
2007,10,23,11,33,14.60
2007,10,23,11,34,14.70
2007,10,23,11,35,14.80
2007,10,23,11,36,14.90
2007,10,23,11,37,15.00
2007,10,23,11,38,15.00
2007,10,23,11,39,15.00
2007,10,23,11,40,15.10
2007,10,23,11,41,15.20
2007,10,23,11,42,15.30
2007,10,23,11,43,15.40
2007,10,23,11,44,15.50
2007,10,23,11,45,15.60
2007,10,23,11,46,15.70
2007,10,23,11,47,15.90
2007,10,23,11,48,16.00
2007,10,23,11,49,16.10
2007,10,23,11,50,16.20
2007,10,23,11,51,16.30
2007,10,23,11,52,16.40
2007,10,23,11,53,16.50
2007,10,23,11,54,16.60
2007,10,23,11,55,16.80
2007,10,23,11,56,16.80
2007,10,23,11,57,16.90
2007,10,23,11,58,16.90
2007,10,23,11,59,17.00
2007,10,23,12,00,17.00
2007,10,23,12,01,17.10
2007,10,23,12,02,17.10
2007,10,23,12,03,17.20
2007,10,23,12,04,17.20
2007,10,23,12,05,17.20
2007,10,23,12,06,17.20
2007,10,23,12,07,17.20
2007,10,23,12,08,17.20
2007,10,23,12,09,17.10
2007,10,23,12,10,17.10
2007,10,23,12,11,17.10
2007,10,23,12,12,17.10
2007,10,23,12,13,17.10
2007,10,23,12,14,17.10
2007,10,23,12,15,17.10
2007,10,23,12,16,17.00
2007,10,23,12,17,16.90
2007,10,23,12,18,16.80
2007,10,23,12,19,16.80
2007,10,23,12,20,16.90
2007,10,23,12,21,16.90
2007,10,23,12,22,17.00
2007,10,23,12,23,17.10
2007,10,23,12,24,17.20
2007,10,23,12,25,17.20
2007,10,23,12,26,17.20
2007,10,23,12,27,17.30
2007,10,23,12,28,17.30
2007,10,23,12,29,17.40
2007,10,23,12,30,17.50
2007,10,23,12,31,17.60
2007,10,23,12,32,17.60
2007,10,23,12,33,17.70
2007,10,23,12,34,17.80
2007,10,23,12,35,17.80
2007,10,23,12,36,17.90
2007,10,23,12,37,17.90
2007,10,23,12,38,18.00
2007,10,23,12,39,18.10
2007,10,23,12,40,18.10
2007,10,23,12,41,18.10
2007,10,23,12,42,18.20
2007,10,23,12,43,18.20
2007,10,23,12,44,18.20
2007,10,23,12,45,18.20
2007,10,23,12,46,18.20
2007,10,23,12,47,18.20
2007,10,23,12,48,18.20
2007,10,23,12,49,18.20
2007,10,23,12,50,18.20
2007,10,23,12,51,18.30
2007,10,23,12,52,18.30
2007,10,23,12,53,18.30
2007,10,23,12,54,18.30
2007,10,23,12,55,18.30
2007,10,23,12,56,18.30
2007,10,23,12,57,18.30
2007,10,23,12,58,18.20
2007,10,23,12,59,18.30
2007,10,23,13,00,18.30
2007,10,23,13,01,18.30
2007,10,23,13,02,18.30
2007,10,23,13,03,18.30
2007,10,23,13,04,18.40
2007,10,23,13,05,18.40
2007,10,23,13,06,18.50
2007,10,23,13,07,18.50
2007,10,23,13,08,18.50
2007,10,23,13,09,18.50
2007,10,23,13,10,18.50
2007,10,23,13,11,18.40
2007,10,23,13,12,18.40
2007,10,23,13,13,18.40
2007,10,23,13,14,18.40
2007,10,23,13,15,18.40
2007,10,23,13,16,18.50
2007,10,23,13,17,18.50
2007,10,23,13,18,18.50
2007,10,23,13,19,18.50
2007,10,23,13,20,18.50
2007,10,23,13,21,18.50
2007,10,23,13,22,18.60
2007,10,23,13,23,18.60
2007,10,23,13,24,18.70
2007,10,23,13,25,18.70
2007,10,23,13,26,18.70
2007,10,23,13,27,18.70
2007,10,23,13,28,18.80
2007,10,23,13,29,18.80
2007,10,23,13,30,18.80
2007,10,23,13,31,18.90
2007,10,23,13,32,18.90
2007,10,23,13,33,18.90
2007,10,23,13,34,18.90
2007,10,23,13,35,18.90
2007,10,23,13,36,18.90
2007,10,23,13,37,18.90
2007,10,23,13,38,18.90
2007,10,23,13,39,19.00
2007,10,23,13,40,19.10
2007,10,23,13,41,19.10
2007,10,23,13,42,19.20
2007,10,23,13,43,19.20
2007,10,23,13,44,19.30
2007,10,23,13,45,19.30
2007,10,23,13,46,19.40
2007,10,23,13,47,19.40
2007,10,23,13,48,19.40
2007,10,23,13,49,19.50
2007,10,23,13,50,19.50
2007,10,23,13,51,19.50
2007,10,23,13,52,19.40
2007,10,23,13,53,19.20
2007,10,23,13,54,19.10
2007,10,23,13,55,19.00
2007,10,23,13,56,19.00
2007,10,23,13,57,18.90
2007,10,23,13,58,18.90
2007,10,23,13,59,18.90
2007,10,23,14,00,19.00
2007,10,23,14,01,19.00
2007,10,23,14,02,19.00
2007,10,23,14,03,19.10
2007,10,23,14,04,19.10
2007,10,23,14,05,19.10
2007,10,23,14,06,19.10
2007,10,23,14,07,19.10
2007,10,23,14,08,19.10
2007,10,23,14,09,19.10
2007,10,23,14,10,19.20
2007,10,23,14,11,19.20
2007,10,23,14,12,19.30
2007,10,23,14,13,19.30
2007,10,23,14,14,19.40
2007,10,23,14,15,19.40
2007,10,23,14,16,19.50
2007,10,23,14,17,19.50
2007,10,23,14,18,19.50
2007,10,23,14,19,19.50
2007,10,23,14,20,19.40
2007,10,23,14,21,19.40
2007,10,23,14,22,19.30
2007,10,23,14,23,19.20
2007,10,23,14,24,19.20
2007,10,23,14,25,19.30
2007,10,23,14,26,19.30
2007,10,23,14,27,19.40
2007,10,23,14,28,19.40
2007,10,23,14,29,19.50
2007,10,23,14,30,19.50
2007,10,23,14,31,19.50
2007,10,23,14,32,19.40
2007,10,23,14,33,19.40
2007,10,23,14,34,19.30
2007,10,23,14,35,19.40
2007,10,23,14,36,19.40
2007,10,23,14,37,19.40
2007,10,23,14,38,19.50
2007,10,23,14,39,19.60
2007,10,23,14,40,19.60
2007,10,23,14,41,19.70
2007,10,23,14,42,19.70
2007,10,23,14,43,19.70
2007,10,23,14,44,19.70
2007,10,23,14,45,19.70
2007,10,23,14,46,19.70
2007,10,23,14,47,19.70
2007,10,23,14,48,19.60
2007,10,23,14,49,19.60
2007,10,23,14,50,19.60
2007,10,23,14,51,19.70
2007,10,23,14,52,19.70
2007,10,23,14,53,19.80
2007,10,23,14,54,19.80
2007,10,23,14,55,19.80
2007,10,23,14,56,19.80
2007,10,23,14,57,19.80
2007,10,23,14,58,19.80
2007,10,23,14,59,19.90
2007,10,23,15,00,19.90
2007,10,23,15,01,19.90
2007,10,23,15,02,19.90
2007,10,23,15,03,19.90
2007,10,23,15,04,20.00
2007,10,23,15,05,20.00
2007,10,23,15,06,20.10
2007,10,23,15,07,20.20
2007,10,23,15,08,20.20
2007,10,23,15,09,20.30
2007,10,23,15,10,20.40
2007,10,23,15,11,20.40
2007,10,23,15,12,20.30
2007,10,23,15,13,20.30
2007,10,23,15,14,20.20
2007,10,23,15,15,20.20
2007,10,23,15,16,20.10
2007,10,23,15,17,20.10
2007,10,23,15,18,20.20
2007,10,23,15,19,20.20
2007,10,23,15,20,20.30
2007,10,23,15,21,20.40
2007,10,23,15,22,20.40
2007,10,23,15,23,20.50
2007,10,23,15,24,20.50
2007,10,23,15,25,20.60
2007,10,23,15,26,20.60
2007,10,23,15,27,20.70
2007,10,23,15,28,20.70
2007,10,23,15,29,20.70
2007,10,23,15,30,20.70
2007,10,23,15,31,20.60
2007,10,23,15,32,20.50
2007,10,23,15,33,20.50
2007,10,23,15,34,20.40
2007,10,23,15,35,20.40
2007,10,23,15,36,20.40
2007,10,23,15,37,20.40
2007,10,23,15,38,20.50
2007,10,23,15,39,20.50
2007,10,23,15,40,20.50
2007,10,23,15,41,20.60
2007,10,23,15,42,20.60
2007,10,23,15,43,20.60
2007,10,23,15,44,20.60
2007,10,23,15,45,20.60
2007,10,23,15,46,20.70
2007,10,23,15,47,20.70
2007,10,23,15,48,20.80
2007,10,23,15,49,20.80
2007,10,23,15,50,20.80
2007,10,23,15,51,20.80
2007,10,23,15,52,20.80
2007,10,23,15,53,20.70
2007,10,23,15,54,20.70
2007,10,23,15,55,20.70
2007,10,23,15,56,20.70
2007,10,23,15,57,20.60
2007,10,23,15,58,20.60
2007,10,23,15,59,20.60
2007,10,23,16,00,20.60
2007,10,23,16,01,20.60
2007,10,23,16,02,20.70
2007,10,23,16,03,20.70
2007,10,23,16,04,20.70
2007,10,23,16,05,20.70
2007,10,23,16,06,20.70
2007,10,23,16,07,20.70
2007,10,23,16,08,20.70
2007,10,23,16,09,20.70
2007,10,23,16,10,20.80
2007,10,23,16,11,20.80
2007,10,23,16,12,20.80
2007,10,23,16,13,20.80
2007,10,23,16,14,20.80
2007,10,23,16,15,20.80
2007,10,23,16,16,20.80
2007,10,23,16,17,20.80
2007,10,23,16,18,20.80
2007,10,23,16,19,20.80
2007,10,23,16,20,20.80
2007,10,23,16,21,20.80
2007,10,23,16,22,20.80
2007,10,23,16,23,20.70
2007,10,23,16,24,20.70
2007,10,23,16,25,20.70
2007,10,23,16,26,20.70
2007,10,23,16,27,20.60
2007,10,23,16,28,20.60
2007,10,23,16,29,20.50
2007,10,23,16,30,20.50
2007,10,23,16,31,20.40
2007,10,23,16,32,20.40
2007,10,23,16,33,20.40
2007,10,23,16,34,20.30
2007,10,23,16,35,20.20
2007,10,23,16,36,20.10
2007,10,23,16,37,20.00
2007,10,23,16,38,19.90
2007,10,23,16,39,19.80
2007,10,23,16,40,19.60
2007,10,23,16,41,19.50
2007,10,23,16,42,19.40
2007,10,23,16,43,19.30
2007,10,23,16,44,19.20
2007,10,23,16,45,19.20
2007,10,23,16,46,19.10
2007,10,23,16,47,19.10
2007,10,23,16,48,19.00
2007,10,23,16,49,18.90
2007,10,23,16,50,18.90
2007,10,23,16,51,18.80
2007,10,23,16,52,18.80
2007,10,23,16,53,18.70
2007,10,23,16,54,18.70
2007,10,23,16,55,18.70
2007,10,23,16,56,18.70
2007,10,23,16,57,18.70
2007,10,23,16,58,18.70
2007,10,23,16,59,18.70
2007,10,23,17,00,18.70
2007,10,23,17,01,18.60
2007,10,23,17,02,18.60
2007,10,23,17,03,18.50
2007,10,23,17,04,18.50
2007,10,23,17,05,18.40
2007,10,23,17,06,18.30
2007,10,23,17,07,18.20
2007,10,23,17,08,18.10
2007,10,23,17,09,18.00
2007,10,23,17,10,17.80
2007,10,23,17,11,17.70
2007,10,23,17,12,17.60
2007,10,23,17,13,17.50
2007,10,23,17,14,17.40
2007,10,23,17,15,17.40
2007,10,23,17,16,17.40
2007,10,23,17,17,17.40
2007,10,23,17,18,17.30
2007,10,23,17,19,17.30
2007,10,23,17,20,17.30
2007,10,23,17,21,17.30
2007,10,23,17,22,17.30